Flag for U.S.A. Weather for the Past 2 Weeks in Furnace Creek (Death Valley), California, U.S.A.

Now
41 °F

Clear.


Feels Like: 39 °F
Forecast: 47 / 84 °F
Wind: 3 mph from Northeast

Location: Desert Rock Airport

Current Time: Feb 14, 2016 at 6:55:55 AM

Latest Report: Feb 14, 2016 at 5:53 AM


Visibility: 10 mi

Pressure: 30.13 "Hg

Humidity: 43%

Dew point: 20 °F

Location of Furnace Creek (Death Valley)Location

Historic Weather in Furnace Creek (Death Valley) — Graph

°F

Furnace Creek (Death Valley) Temperature Yesterday

Maximum temperature yesterday: 74 °F (at 2:53 PM)
Minimum temperature yesterday: 37 °F (at 3:53 AM)
Average temperature yesterday: 55 °F

High & Low Weather Summary for the Past Weeks

 TemperatureHumidityPressure
High74 °F (Feb 13, 2:53 PM)97% (Jan 31, 11:02 PM)30.51 "Hg (Jan 31, 11:02 PM)
Low25 °F (Feb 3, 6:53 AM)9% (Feb 13, 4:53 PM)29.30 "Hg (Jan 31, 3:53 PM)
Average47 °F42%30.17 "Hg
* Reported Jan 30 4:53 AM — Feb 14 4:53 AM, Furnace Creek (Death Valley), Weather by CustomWeather, © 2016

Note: Actual official high and low records may vary slightly from our data, if they occured in-between our weather recording intervals... More about our weather records

Advertising

Furnace Creek (Death Valley) Weather History for the Previous 24 Hours

 ConditionsComfort  
Time TempWeatherWind HumidityBarometerVisibility
4:53 AM
Sun, Feb 14
42 °FClear.9 mph41%30.08 "Hg10 mi
3:53 AM51 °FClear.9 mph26%30.06 "Hg10 mi
2:53 AM49 °FClear.5 mph28%30.08 "Hg10 mi
1:53 AM45 °FClear.5 mph35%30.12 "Hg10 mi
12:53 AM45 °FClear.6 mph35%30.14 "Hg10 mi
11:53 PM
Sat, Feb 13
49 °FClear.8 mph29%30.13 "Hg10 mi
10:53 PM55 °FClear.7 mph21%30.11 "Hg10 mi
9:53 PM53 °FClear.7 mph22%30.11 "Hg10 mi
8:53 PM57 °FClear.3 mph19%30.11 "Hg10 mi
7:53 PM59 °FClear.15 mph18%30.09 "Hg10 mi
6:53 PM60 °FClear.15 mph19%30.11 "Hg10 mi
5:53 PM64 °FClear.12 mph13%30.10 "Hg10 mi
4:53 PM70 °FSunny.16 mph9%30.10 "Hg10 mi
3:53 PM74 °FSunny.14 mph14%30.07 "Hg10 mi
2:53 PM74 °FSunny.14 mph14%30.06 "Hg10 mi
1:53 PM73 °FSunny.8 mph16%30.06 "Hg10 mi
12:53 PM71 °FSunny.12 mph14%30.08 "Hg10 mi
11:53 AM69 °FSunny.10 mph17%30.11 "Hg10 mi
10:53 AM68 °FSunny.8 mph18%30.12 "Hg10 mi
9:53 AM62 °FSunny.13 mph25%30.15 "Hg10 mi
8:53 AM51 °FSunny.No wind38%30.17 "Hg10 mi
7:53 AM45 °FSunny.No wind48%30.17 "Hg10 mi
6:53 AM39 °FSunny.5 mph57%30.18 "Hg10 mi
Weather by CustomWeather, © 2016

See weather overviewHow to use our weather pages